Weather History for Opa Locka, FL

Change the Weather History Date:

Saturday, February 22, 2014

  Actual Average Record
Temperature  
Mean Temperature 76 °F -  
Max Temperature 84 °F 78 °F 87 °F (1987)
Min Temperature 69 °F 62 °F 46 °F (1958)
Cooling Degree Days 12    
Growing Degree Days 26 (Base 50)    
Moisture  
Dew Point 70 °F    
Average Humidity 82    
Maximum Humidity 100    
Minimum Humidity 51    
Precipitation  
Precipitation 0.00 in - - ()
Sea Level Pressure  
Sea Level Pressure 30.08 in    
Wind  
Wind Speed 4 mph (South)    
Max Wind Speed 14 mph    
Max Gust Speed 18 mph    
Visibility 10 miles    
Events      
Averages and records for this station are not official NWS values.
T = Trace of Precipitation, MM = Missing Value Source: NWS Daily Summary

Daily Weather History Graph

Daily Weather History Graph

Search for Another Location

Airport:

Trip Planner

Search our weather history database for the weather conditions in past years. The results will help you decide how hot, cold, wet, or windy it might be!

Date:

Astronomy

Feb. 22, 2014 Rise Set
Actual Time 6:50 AM EST 6:18 PM EST
Civil Twilight 6:27 AM EST 6:42 PM EST
Nautical Twilight 6:00 AM EST 7:08 PM EST
Astronomical Twilight 5:33 AM EST 7:35 PM EST
Moon 12:31 AM EST (2/22) 11:43 AM EST (2/22)
Length of Visible Light 12h 14m
Length of Day
11h 28m
Waning Gibbous, 50% of the Moon is Illuminated
Feb 22
Waning Gibbous
Feb 22
Last Quarter
Mar 1
New
Mar 8
First Quarter
Mar 16
Full

Hourly Weather History & Observations

Time (EST) Temp. Heat Index Dew Point Humidity Pressure Visibility Wind Dir Wind Speed Gust Speed Precip Events Conditions
12:53 AM 73.0 °F - 72.0 °F 96% 30.07 in 10.0 mi South 4.6 mph - N/A   Clear
1:53 AM 73.0 °F - 73.0 °F 100% 30.05 in 10.0 mi SSE 6.9 mph - N/A   Clear
2:53 AM 72.0 °F - 72.0 °F 100% 30.05 in 10.0 mi SE 3.5 mph - N/A   Clear
3:53 AM 71.1 °F - 71.1 °F 100% 30.04 in 10.0 mi Calm Calm - N/A   Clear
4:53 AM 72.0 °F - 72.0 °F 100% 30.06 in 10.0 mi Calm Calm - N/A   Mostly Cloudy
5:38 AM 72.0 °F - 72.0 °F 100% 30.06 in 10.0 mi Calm Calm - N/A   Scattered Clouds
5:53 AM 71.1 °F - 71.1 °F 100% 30.06 in 10.0 mi Calm Calm - N/A   Clear
6:53 AM 69.1 °F - 69.1 °F 100% 30.09 in 10.0 mi Calm Calm - N/A   Partly Cloudy
7:05 AM 70.0 °F - 70.0 °F 100% 30.09 in 10.0 mi Calm Calm - N/A   Mostly Cloudy
7:21 AM 70.0 °F - 70.0 °F 100% 30.09 in 10.0 mi Calm Calm - N/A   Scattered Clouds
7:53 AM 73.0 °F - 73.0 °F 100% 30.10 in 10.0 mi Calm Calm - N/A   Partly Cloudy
8:53 AM 78.1 °F - 73.0 °F 84% 30.12 in 10.0 mi SSW 3.5 mph - N/A   Scattered Clouds
9:13 AM 80.1 °F 83.6 °F 71.1 °F 74% 30.12 in 10.0 mi South 9.2 mph - N/A   Mostly Cloudy
9:22 AM 79.0 °F - 69.1 °F 72% 30.12 in 10.0 mi South 6.9 mph - N/A   Scattered Clouds
9:53 AM 80.1 °F 82.9 °F 69.1 °F 69% 30.13 in 10.0 mi South 9.2 mph - N/A   Clear
10:53 AM 82.0 °F 84.5 °F 66.9 °F 60% 30.12 in 10.0 mi South 8.1 mph - N/A   Scattered Clouds
11:53 AM 84.0 °F 87.0 °F 68.0 °F 58% 30.11 in 10.0 mi South 10.4 mph - N/A   Mostly Cloudy
12:53 PM 84.0 °F 86.3 °F 66.0 °F 55% 30.08 in 10.0 mi South 8.1 mph 18.4 mph N/A   Scattered Clouds
1:53 PM 84.9 °F 86.6 °F 64.9 °F 51% 30.04 in 10.0 mi SSW 11.5 mph - 0.00 in   Mostly Cloudy
2:53 PM 84.0 °F 86.3 °F 66.0 °F 55% 30.02 in 10.0 mi SE 13.8 mph 18.4 mph N/A   Partly Cloudy
3:53 PM 84.0 °F 85.8 °F 64.9 °F 53% 30.02 in 10.0 mi South 8.1 mph 17.3 mph N/A   Partly Cloudy
4:53 PM 81.0 °F 82.7 °F 64.9 °F 58% 30.02 in 10.0 mi South 11.5 mph - N/A   Clear
5:53 PM 79.0 °F - 66.9 °F 66% 30.04 in 10.0 mi South 6.9 mph - N/A   Clear
6:53 PM 77.0 °F - 69.1 °F 76% 30.04 in 10.0 mi South 8.1 mph - N/A   Clear
7:53 PM 75.0 °F - 70.0 °F 84% 30.06 in 10.0 mi SSE 5.8 mph - N/A   Clear
8:53 PM 75.0 °F - 71.1 °F 87% 30.09 in 10.0 mi SSE 4.6 mph - N/A   Clear
9:53 PM 73.9 °F - 71.1 °F 91% 30.10 in 10.0 mi Calm Calm - N/A   Clear
10:53 PM 73.9 °F - 71.1 °F 91% 30.10 in 10.0 mi Calm Calm - N/A   Clear
11:53 PM 73.0 °F - 71.1 °F 93% 30.09 in 10.0 mi Calm Calm - N/A   Clear